Skip Page Navigation
NASA JPL Caltech
NASA Logo - Jet Propulsion Laboratory + View the NASA Portal
+ Near-Earth Object (NEO) Program
Search JPL
JPL Home Earth Solar System Stars & Galaxies Technology
JPL Solar System Dynamics
BODIES ORBITS EPHEMERIDES TOOLS PHYSICAL DATA DISCOVERY FAQ SITE MAP
JPL Small-Body Database Browser
Search: [ help ]  
288478 Fahlman (2004 FA17)
Classification: Main-belt Asteroid          SPK-ID: 2288478
Ephemeris | Orbit Diagram | Orbital Elements | Physical Parameters | Discovery Circumstances ]

[ hide orbit diagram ]
Orbit Diagram
Note: Make sure you have Java enabled on your browser to see the applet. This applet is provided as a 3D orbit visualization tool. The applet was implemented using 2-body methods, and hence should not be used for determining accurate long-term trajectories (over several years or decades) or planetary encounter circumstances. For accurate long-term ephemerides, please instead use our Horizons system.
Orbit Viewer

Additional Notes: the orbits shown in the applet are color coded. The planets are white lines, and the asteroid/comet is a blue line. The bright white line indicates the portion of the orbit that is above the ecliptic plane, and the darker portion is below the ecliptic plane. Likewise for the asteroid/comet orbit, the light blue indicates the portion above the ecliptic plane, and the dark blue the portion below the ecliptic plane.

Orbit Viewer applet originally written and kindly provided by Osamu Ajiki (AstroArts), and further modified by Ron Baalke (JPL).


Orbital Elements at Epoch 2456400.5 (2013-Apr-18.0) TDB
Reference: MPO254521 (heliocentric ecliptic J2000)
 Element Value Uncertainty (1-sigma)   Units 
e 0.1809031 n/a  
a 2.8017324 n/a AU
q 2.2948903 n/a AU
i 7.35412 n/a deg
node 216.47701 n/a deg
peri 45.71563 n/a deg
M 253.60692 n/a deg
tp 2456906.7316458
(2014-Sep-06.23164580)
n/a JED
period 1712.9252438
4.69
n/a
n/a
d
yr
n 0.21016679 n/a deg/d
Q 3.3085745 n/a AU
  Orbit Determination Parameters
   # obs. used (total)      75  
   first obs. used      2000-??-??  
   last obs. used      2013-02-10  
   # oppositions      7  
   planetary ephem.      DE403  
   condition code      0  
   fit RMS      0.40  
   data source      MPC:mpu  
   producer      MPCLINUX  

Additional Information
 T_jup = 3.289 

Ephemeris | Orbit Diagram | Orbital Elements | Physical Parameters | Discovery Circumstances ]

Physical Parameter Table
Parameter Symbol Value Units Sigma Reference Notes
absolute magnitude H 16.8 mag n/a MPO254521  

288478 Fahlman           Discovered 2004 Mar. 16 by D. D. Balam at Mauna Kea.
Gregory Gaylord Fahlman (b. 1944) has served since 2003 as the Director General of the Herzberg Institute of Astrophysics, National Research Council of Canada. He has made extensive contributions to studies of globular star clusters using ground- and space-based telescopes.
NOTE: some special characters may not display properly (any characters within {} are an attempt to place the proper accent above a character)
Reference: 20120207/MPCPages.arcLast Updated: 2012-02-09

Alternate Designations
 2004 FA17 = 2006 US193 
Ephemeris | Orbit Diagram | Orbital Elements | Physical Parameters | Discovery Circumstances ]
ABOUT SSD CREDITS/AWARDS PRIVACY/COPYRIGHT GLOSSARY LINKS
FirstGov 2013-May-22 03:32 UT
(server date/time)  
NASA Home Page
Site Manager:   Donald K. Yeomans
Webmaster  Alan B. Chamberlin